Погода в Бакчаре

Россия / Томская область     57°01′18″N   82°04′23″E
темп.,
°C
ветер,
м/с
пор.,
м/с
влажн.,
%
обл.,
%
осадки,
мм/ч
давл.,
гПа
погр.,
м
20 июня, вс
вс2001:00+7сз3777100 0.0 1004771
04:00+7зсз3776100 0.0 1005758
07:00+8з3565100 0.0 1006944
10:00+9з4559100 0.0 10061266
13:00+10з3456100 0.0 10061452
16:00+13зюз2447100 0.0 10051732
19:00+14ю2448100 0.0 10051162
22:00+11ю286317 0.0 1005306
21 июня, пн
пн2101:00+7ююв369199 0.0 1006113
04:00+6юв26975 0.0 1005113
07:00+9вюв38785 0.0 1005237
10:00+16вюв464947 0.0 10051081
13:00+17вюв4645100 0.0 10052270
16:00+11юв1593100 1.1 1006251
19:00+10всв3698100 5.9 1007403
22:00+10всв3699100 0.9 1007407
22 июня, вт
вт2201:00+10в2599100 1.0 1006263
04:00+9юв2497100 0.3 1006187
07:00+10ю129597 0.3 1007294
10:00+13юз117644 0.0 1007637
13:00+17зсз2252100 0.1 10061704
16:00+17сз325580 0.5 10071339
19:00+16ссз3467100 1.1 1008942
22:00+11сз3887100 0.4 1008299
23 июня, ср
ср2301:00+9сз3999100 0.4 1008315
04:00+9сз3895100 0.1 1008312
07:00+9зсз3892100 0.1 1007302
10:00+11зсз4783100 0.2 1007565
13:00+10зсз4697100 1.5 1008489
16:00+10зсз3898100 1.1 1009427
19:00+10з3797100 1.1 1009528
22:00+9з2698100 0.3 1009347
24 июня, чт
чт2401:00+9зюз2599100 0.3 1009339
04:00+8юз2399100 0.1 1008236
07:00+9ююз1299100 0.4 1009184
10:00+10ююв1292100 0.0 1010422
13:00+14в1168100 0.1 10101021
16:00+17ссв125399 0.0 10101472
19:00+15с1272100 0.1 101066
22:00+12с2293100 0.6 101137